Météo par heure à Amvrosievka

Ce jour, 29 Septembre, Mardi

Heure Température Précipitation Vent Pression Humidité
00:00 +17°C° 0 mm 7 m/s 752 mmHg 40%
01:00 +16°C° 0 mm 6 m/s 752 mmHg 44%
02:00 +15°C° 0 mm 6 m/s 751 mmHg 47%
03:00 +14°C° 0 mm 5 m/s 751 mmHg 52%
04:00 +13°C° 0 mm 5 m/s 751 mmHg 55%
05:00 +13°C° 0 mm 6 m/s 751 mmHg 58%
06:00 +11°C° 0 mm 6 m/s 751 mmHg 61%
07:00 +12°C° 0 mm 7 m/s 751 mmHg 60%
08:00 +14°C° 0 mm 7 m/s 751 mmHg 59%
09:00 +15°C° 0 mm 8 m/s 751 mmHg 59%
10:00 +17°C° 0 mm 8 m/s 750 mmHg 52%
11:00 +20°C° 0 mm 8 m/s 750 mmHg 45%
12:00 +21°C° 0 mm 8 m/s 750 mmHg 38%
13:00 +22°C° 0 mm 8 m/s 749 mmHg 35%
14:00 +23°C° 0 mm 8 m/s 749 mmHg 32%
15:00 +24°C° 0 mm 9 m/s 749 mmHg 29%
16:00 +23°C° 0 mm 8 m/s 748 mmHg 29%
17:00 +23°C° 0 mm 8 m/s 748 mmHg 29%
18:00 +22°C° 0 mm 7 m/s 747 mmHg 29%
19:00 +22°C° 0 mm 8 m/s 747 mmHg 30%
20:00 +21°C° 0 mm 8 m/s 747 mmHg 31%
21:00 +20°C° 0 mm 8 m/s 746 mmHg 32%
22:00 +18°C° 0 mm 8 m/s 746 mmHg 36%
23:00 +18°C° 0 mm 8 m/s 746 mmHg 39%

Demain, 30 Septembre, Mercredi

Heure Température Précipitation Vent Pression Humidité
00:00 +17°C° 0 mm 8 m/s 745 mmHg 42%
01:00 +16°C° 0 mm 8 m/s 745 mmHg 43%
02:00 +15°C° 0 mm 9 m/s 745 mmHg 45%
03:00 +13°C° 0 mm 9 m/s 745 mmHg 46%
04:00 +13°C° 0 mm 9 m/s 745 mmHg 49%
05:00 +12°C° 0 mm 9 m/s 744 mmHg 52%
06:00 +12°C° 0 mm 9 m/s 744 mmHg 55%
07:00 +12°C° 0 mm 10 m/s 744 mmHg 53%
08:00 +13°C° 0 mm 11 m/s 744 mmHg 51%
09:00 +14°C° 0 mm 11 m/s 744 mmHg 49%
10:00 +17°C° 0 mm 11 m/s 744 mmHg 44%
11:00 +19°C° 0 mm 11 m/s 744 mmHg 38%
12:00 +21°C° 0 mm 11 m/s 744 mmHg 32%
13:00 +22°C° 0 mm 10 m/s 743 mmHg 30%
14:00 +22°C° 0 mm 10 m/s 743 mmHg 27%
15:00 +23°C° 0 mm 9 m/s 743 mmHg 25%
16:00 +23°C° 0 mm 9 m/s 743 mmHg 25%
17:00 +23°C° 0 mm 8 m/s 743 mmHg 24%
18:00 +23°C° 0 mm 7 m/s 743 mmHg 24%
19:00 +22°C° 0.1 mm 8 m/s 743 mmHg 27%
20:00 +22°C° 0.1 mm 9 m/s 744 mmHg 31%
21:00 +21°C° 0.1 mm 10 m/s 744 mmHg 34%
22:00 +19°C° 0.4 mm 10 m/s 745 mmHg 37%
23:00 +18°C° 0.4 mm 9 m/s 745 mmHg 41%

Après-demain, 1 Octobre, Jeudi

Heure Température Précipitation Vent Pression Humidité
00:00 +16°C° 0.4 mm 9 m/s 745 mmHg 44%
01:00 +16°C° 0 mm 8 m/s 745 mmHg 46%
02:00 +15°C° 0 mm 8 m/s 745 mmHg 48%
03:00 +15°C° 0 mm 8 m/s 745 mmHg 50%
04:00 +13°C° 0 mm 8 m/s 745 mmHg 52%
05:00 +14°C° 0 mm 7 m/s 746 mmHg 54%
06:00 +14°C° 0 mm 7 m/s 746 mmHg 56%
07:00 +15°C° 0 mm 8 m/s 746 mmHg 54%
08:00 +15°C° 0 mm 8 m/s 746 mmHg 52%
09:00 +16°C° 0 mm 8 m/s 746 mmHg 50%
10:00 +17°C° 0.1 mm 8 m/s 746 mmHg 47%
11:00 +18°C° 0.1 mm 8 m/s 746 mmHg 44%
12:00 +20°C° 0.1 mm 8 m/s 746 mmHg 41%
13:00 +20°C° 0.2 mm 7 m/s 746 mmHg 41%
14:00 +20°C° 0.2 mm 6 m/s 746 mmHg 41%
15:00 +20°C° 0.2 mm 5 m/s 746 mmHg 40%
16:00 +20°C° 0 mm 5 m/s 746 mmHg 41%
17:00 +20°C° 0 mm 5 m/s 746 mmHg 42%
18:00 +20°C° 0 mm 5 m/s 746 mmHg 43%
19:00 +20°C° 0 mm 5 m/s 746 mmHg 41%
20:00 +20°C° 0 mm 6 m/s 746 mmHg 39%
21:00 +20°C° 0 mm 7 m/s 746 mmHg 37%
22:00 +18°C° 0 mm 7 m/s 746 mmHg 39%
23:00 +17°C° 0 mm 7 m/s 746 mmHg 42%

2 Octobre, Vendredi

Heure Température Précipitation Vent Pression Humidité
00:00 +16°C° 0 mm 8 m/s 746 mmHg 44%
01:00 +16°C° 0 mm 7 m/s 746 mmHg 46%
02:00 +15°C° 0 mm 7 m/s 746 mmHg 48%
03:00 +14°C° 0 mm 7 m/s 746 mmHg 50%
04:00 +14°C° 0 mm 7 m/s 746 mmHg 53%
05:00 +14°C° 0 mm 7 m/s 746 mmHg 55%
06:00 +12°C° 0 mm 7 m/s 746 mmHg 58%
07:00 +14°C° 0 mm 7 m/s 746 mmHg 56%
08:00 +15°C° 0 mm 8 m/s 747 mmHg 53%
09:00 +16°C° 0 mm 8 m/s 747 mmHg 50%
10:00 +17°C° 0 mm 8 m/s 747 mmHg 47%
11:00 +20°C° 0 mm 8 m/s 747 mmHg 44%
12:00 +22°C° 0 mm 8 m/s 747 mmHg 41%
13:00 +21°C° 0.1 mm 8 m/s 747 mmHg 43%
14:00 +21°C° 0.1 mm 8 m/s 747 mmHg 46%
15:00 +21°C° 0.1 mm 8 m/s 747 mmHg 49%
16:00 +20°C° 0.1 mm 7 m/s 747 mmHg 57%
17:00 +17°C° 0.1 mm 7 m/s 747 mmHg 65%
18:00 +16°C° 0.1 mm 6 m/s 747 mmHg 73%
19:00 +16°C° 0.2 mm 6 m/s 748 mmHg 71%
20:00 +16°C° 0.2 mm 5 m/s 748 mmHg 70%
21:00 +17°C° 0.2 mm 4 m/s 748 mmHg 68%
22:00 +17°C° 0.5 mm 4 m/s 748 mmHg 64%
23:00 +17°C° 0.5 mm 4 m/s 748 mmHg 61%

3 Octobre, Samedi

Heure Température Précipitation Vent Pression Humidité
00:00 +17°C° 0.5 mm 4 m/s 748 mmHg 57%
01:00 +15°C° 0.5 mm 4 m/s 748 mmHg 60%
02:00 +14°C° 0.5 mm 4 m/s 748 mmHg 64%
03:00 +14°C° 0.5 mm 4 m/s 748 mmHg 67%
04:00 +13°C° 0 mm 4 m/s 749 mmHg 69%
05:00 +13°C° 0 mm 4 m/s 749 mmHg 70%
06:00 +13°C° 0 mm 4 m/s 749 mmHg 72%
07:00 +14°C° 0 mm 4 m/s 749 mmHg 68%
08:00 +14°C° 0 mm 4 m/s 749 mmHg 65%
09:00 +15°C° 0 mm 4 m/s 750 mmHg 61%
10:00 +17°C° 0 mm 4 m/s 750 mmHg 58%
11:00 +19°C° 0 mm 3 m/s 750 mmHg 55%
12:00 +20°C° 0 mm 3 m/s 750 mmHg 51%
13:00 +21°C° 0 mm 2 m/s 750 mmHg 50%
14:00 +21°C° 0 mm 2 m/s 750 mmHg 48%
15:00 +23°C° 0 mm 2 m/s 750 mmHg 46%
16:00 +22°C° 0 mm 1 m/s 750 mmHg 48%
17:00 +22°C° 0 mm 1 m/s 750 mmHg 51%
18:00 +21°C° 0 mm 1 m/s 749 mmHg 53%
19:00 +20°C° 0 mm 1 m/s 750 mmHg 53%
20:00 +18°C° 0 mm 2 m/s 750 mmHg 54%
21:00 +18°C° 0 mm 2 m/s 750 mmHg 55%
22:00 +17°C° 0 mm 2 m/s 750 mmHg 54%
23:00 +17°C° 0 mm 2 m/s 750 mmHg 54%

4 Octobre, Dimanche

Heure Température Précipitation Vent Pression Humidité
00:00 +16°C° 0 mm 2 m/s 750 mmHg 53%
01:00 +16°C° 0 mm 2 m/s 750 mmHg 53%
02:00 +16°C° 0 mm 2 m/s 750 mmHg 53%
03:00 +15°C° 0 mm 2 m/s 750 mmHg 52%
04:00 +15°C° 0 mm 2 m/s 750 mmHg 52%
05:00 +15°C° 0 mm 2 m/s 750 mmHg 51%
06:00 +15°C° 0 mm 2 m/s 750 mmHg 50%
07:00 +16°C° 0 mm 2 m/s 750 mmHg 47%
08:00 +17°C° 0 mm 2 m/s 750 mmHg 44%
09:00 +18°C° 0 mm 2 m/s 750 mmHg 41%
10:00 +20°C° 0 mm 2 m/s 750 mmHg 40%
11:00 +21°C° 0 mm 2 m/s 750 mmHg 39%
12:00 +24°C° 0 mm 1 m/s 750 mmHg 38%
13:00 +24°C° 0 mm 1 m/s 750 mmHg 37%
14:00 +25°C° 0 mm 1 m/s 750 mmHg 36%
15:00 +26°C° 0 mm 1 m/s 750 mmHg 35%
16:00 +25°C° 0 mm 1 m/s 750 mmHg 38%
17:00 +24°C° 0 mm 1 m/s 750 mmHg 40%
18:00 +23°C° 0 mm 2 m/s 750 mmHg 42%
19:00 +21°C° 0 mm 3 m/s 750 mmHg 46%
20:00 +20°C° 0 mm 4 m/s 750 mmHg 50%
21:00 +19°C° 0 mm 5 m/s 751 mmHg 53%
22:00 +17°C° 0.1 mm 5 m/s 751 mmHg 54%
23:00 +16°C° 0.1 mm 5 m/s 751 mmHg 55%
Voir plus